SWA6479 KMEM-KIND

Flight info

Callsign SWA6479
Flight time 0h 57m
Altitude 35000
Route CRSON7 HUMMS PXV EMBRR SMUKE3
Aircraft B738/M-SDE2E3FGHIRWXY/LB1

Departure

Time 2026-05-06 03:30
Airport Memphis International Airport (KMEM)

Arrival

Time 2026-05-06 04:27
Airport Indianapolis International Airport (KIND)
Time Latitude Longitude Altitude Speed Heading
2026-05-06 02:23 35.03324 -89.96764 303 ft 0 kts 271°
2026-05-06 03:17 35.03324 -89.96761 293 ft 2 kts 271°
2026-05-06 03:17 35.03324 -89.96731 303 ft 2 kts 271°
2026-05-06 03:17 35.03324 -89.96729 303 ft 0 kts 271°
2026-05-06 03:22 35.03324 -89.96730 303 ft 1 kts 271°
2026-05-06 03:22 35.03327 -89.96751 303 ft 5 kts 286°
2026-05-06 03:22 35.03356 -89.96793 303 ft 8 kts 345°
2026-05-06 03:22 35.03408 -89.96835 306 ft 10 kts 320°
2026-05-06 03:23 35.03476 -89.96855 306 ft 11 kts
2026-05-06 03:23 35.03567 -89.96850 307 ft 15 kts 359°
2026-05-06 03:23 35.03685 -89.96852 307 ft 19 kts 358°
2026-05-06 03:23 35.03795 -89.96921 309 ft 19 kts 294°
2026-05-06 03:24 35.03809 -89.97014 309 ft 0 kts 276°
2026-05-06 03:24 35.03809 -89.97017 309 ft 1 kts 277°
2026-05-06 03:24 35.03812 -89.97043 309 ft 8 kts 285°
2026-05-06 03:24 35.03881 -89.97092 308 ft 17 kts 354°
2026-05-06 03:25 35.04036 -89.97095 309 ft 27 kts 359°
2026-05-06 03:25 35.04248 -89.97100 310 ft 33 kts 359°
2026-05-06 03:25 35.04477 -89.97060 314 ft 27 kts
2026-05-06 03:25 35.04616 -89.97064 317 ft 20 kts 359°
2026-05-06 03:26 35.04748 -89.97064 319 ft 18 kts 358°
2026-05-06 03:26 35.04858 -89.97067 322 ft 14 kts 357°
2026-05-06 03:26 35.04868 -89.97070 322 ft 0 kts 342°
2026-05-06 03:26 35.04870 -89.97076 322 ft 3 kts 299°
2026-05-06 03:27 35.04873 -89.97145 325 ft 15 kts 270°
2026-05-06 03:27 35.04817 -89.97291 322 ft 24 kts 187°
2026-05-06 03:27 35.04727 -89.97293 322 ft 14 kts 181°
2026-05-06 03:27 35.04719 -89.97294 321 ft 0 kts 181°
2026-05-06 03:28 35.04712 -89.97294 321 ft 2 kts 181°
2026-05-06 03:28 35.04693 -89.97294 321 ft 4 kts 181°
2026-05-06 03:28 35.04685 -89.97294 321 ft 1 kts 181°
2026-05-06 03:28 35.04669 -89.97295 321 ft 3 kts 181°
2026-05-06 03:29 35.04631 -89.97293 320 ft 18 kts 174°
2026-05-06 03:29 35.04234 -89.97280 314 ft 95 kts 179°
2026-05-06 03:29 35.03339 -89.97267 317 ft 158 kts 180°
2026-05-06 03:29 35.02170 -89.97276 941 ft 171 kts 182°
2026-05-06 03:30 35.00987 -89.97300 1958 ft 168 kts 184°
2026-05-06 03:30 34.99746 -89.97195 2336 ft 191 kts 183°
2026-05-06 03:30 34.98364 -89.96990 2663 ft 211 kts 171°
2026-05-06 03:30 34.96949 -89.96374 3152 ft 219 kts 168°
2026-05-06 03:31 34.95493 -89.95754 3639 ft 225 kts 168°
2026-05-06 03:31 34.94135 -89.94666 4091 ft 249 kts 142°
2026-05-06 03:31 34.93205 -89.92790 4547 ft 271 kts 116°
2026-05-06 03:31 34.92779 -89.90515 4944 ft 280 kts 102°
2026-05-06 03:32 34.92645 -89.88102 5014 ft 295 kts 97°
2026-05-06 03:32 34.92571 -89.85574 5404 ft 309 kts 93°
2026-05-06 03:32 34.93037 -89.83000 6136 ft 315 kts 64°
2026-05-06 03:32 34.94092 -89.80667 6906 ft 316 kts 58°
2026-05-06 03:33 34.95242 -89.78356 7569 ft 321 kts 54°
2026-05-06 03:33 34.96769 -89.76409 8217 ft 317 kts 26°
2026-05-06 03:33 34.98762 -89.75411 8978 ft 306 kts
2026-05-06 03:33 35.00837 -89.75266 9749 ft 296 kts 349°
2026-05-06 03:34 35.02907 -89.75386 10369 ft 301 kts 348°
2026-05-06 03:34 35.05076 -89.75534 10545 ft 325 kts 348°
2026-05-06 03:34 35.07402 -89.75671 10784 ft 343 kts 349°
2026-05-06 03:34 35.09818 -89.75790 11332 ft 349 kts 349°
2026-05-06 03:35 35.12251 -89.75900 12065 ft 350 kts 348°
2026-05-06 03:35 35.14691 -89.76027 12726 ft 352 kts 348°
2026-05-06 03:35 35.17150 -89.76163 13385 ft 355 kts 348°
2026-05-06 03:35 35.19622 -89.76299 14048 ft 356 kts 347°
2026-05-06 03:36 35.22105 -89.76436 14633 ft 359 kts 347°
2026-05-06 03:36 35.24615 -89.76575 15225 ft 362 kts 347°
2026-05-06 03:36 35.27143 -89.76714 15823 ft 365 kts 347°
2026-05-06 03:36 35.29706 -89.76742 16379 ft 378 kts 358°
2026-05-06 03:37 35.31826 -89.76030 16817 ft 401 kts 16°
2026-05-06 03:37 35.34289 -89.74348 17419 ft 409 kts 22°
2026-05-06 03:37 35.36741 -89.72518 17950 ft 414 kts 23°
2026-05-06 03:37 35.39209 -89.70653 18415 ft 418 kts 23°
2026-05-06 03:38 35.41695 -89.68783 18885 ft 421 kts 23°
2026-05-06 03:38 35.44173 -89.66929 19371 ft 422 kts 23°
2026-05-06 03:38 35.46695 -89.65058 19845 ft 425 kts 22°
2026-05-06 03:38 35.49266 -89.63169 20311 ft 427 kts 22°
2026-05-06 03:39 35.51827 -89.61293 20776 ft 431 kts 22°
2026-05-06 03:39 35.54379 -89.59420 21194 ft 434 kts 22°
2026-05-06 03:39 35.56975 -89.57509 21648 ft 437 kts 22°
2026-05-06 03:39 35.59598 -89.55576 22118 ft 439 kts 22°
2026-05-06 03:40 35.62219 -89.53638 22546 ft 442 kts 23°
2026-05-06 03:40 35.64854 -89.51658 22962 ft 445 kts 23°
2026-05-06 03:40 35.67503 -89.49658 23380 ft 448 kts 23°
2026-05-06 03:40 35.70171 -89.47660 23727 ft 450 kts 23°
2026-05-06 03:41 35.72857 -89.45658 24069 ft 452 kts 23°
2026-05-06 03:41 35.75562 -89.43644 24445 ft 455 kts 22°
2026-05-06 03:41 35.78292 -89.41613 24572 ft 464 kts 22°
2026-05-06 03:41 35.81062 -89.39549 24889 ft 466 kts 22°
2026-05-06 03:42 35.83831 -89.37476 25316 ft 466 kts 23°
2026-05-06 03:42 35.86601 -89.35399 25668 ft 467 kts 23°
2026-05-06 03:42 35.89391 -89.33306 25960 ft 471 kts 23°
2026-05-06 03:42 35.92196 -89.31203 26260 ft 474 kts 23°
2026-05-06 03:43 35.95021 -89.29082 26551 ft 476 kts 23°
2026-05-06 03:43 35.97859 -89.26949 26857 ft 479 kts 23°
2026-05-06 03:43 36.00706 -89.24807 27166 ft 481 kts 23°
2026-05-06 03:43 36.03570 -89.22651 27472 ft 482 kts 24°
2026-05-06 03:44 36.06431 -89.20492 27877 ft 482 kts 24°
2026-05-06 03:44 36.09296 -89.18331 28182 ft 484 kts 24°
2026-05-06 03:44 36.12181 -89.16154 28420 ft 487 kts 24°
2026-05-06 03:44 36.15078 -89.13966 28670 ft 490 kts 24°
2026-05-06 03:45 36.17994 -89.11762 28945 ft 492 kts 24°
2026-05-06 03:45 36.20923 -89.09545 29216 ft 494 kts 24°
2026-05-06 03:45 36.23858 -89.07321 29477 ft 496 kts 24°
2026-05-06 03:45 36.26813 -89.05081 29648 ft 502 kts 23°
2026-05-06 03:46 36.32843 -89.00504 29963 ft 510 kts 23°
2026-05-06 03:46 36.35866 -88.98203 30246 ft 511 kts 23°
2026-05-06 03:46 36.38891 -88.95902 30555 ft 509 kts 23°
2026-05-06 03:47 36.41909 -88.93608 30899 ft 508 kts 22°
2026-05-06 03:47 36.44919 -88.91320 31218 ft 507 kts 22°
2026-05-06 03:47 36.47928 -88.89033 31501 ft 507 kts 22°
2026-05-06 03:47 36.50929 -88.86749 31826 ft 506 kts 22°
2026-05-06 03:48 36.53930 -88.84462 32167 ft 504 kts 21°
2026-05-06 03:48 36.56917 -88.82181 32505 ft 502 kts 21°
2026-05-06 03:48 36.59848 -88.79942 32823 ft 501 kts 21°
2026-05-06 03:48 36.62813 -88.77675 33116 ft 500 kts 21°
2026-05-06 03:49 36.65777 -88.75407 33412 ft 499 kts 20°
2026-05-06 03:49 36.68730 -88.73146 33715 ft 498 kts 20°
2026-05-06 03:49 36.71673 -88.70889 33993 ft 496 kts 20°
2026-05-06 03:49 36.73658 -88.69367 34163 ft 495 kts 20°
2026-05-06 03:50 36.76590 -88.67117 34386 ft 496 kts 20°
2026-05-06 03:50 36.80494 -88.64121 34609 ft 497 kts 20°
2026-05-06 03:50 36.82482 -88.62592 34748 ft 497 kts 20°
2026-05-06 03:50 36.85390 -88.60355 34843 ft 499 kts 20°
2026-05-06 03:51 36.91320 -88.55788 34843 ft 501 kts 20°
2026-05-06 03:51 36.97223 -88.51220 34832 ft 495 kts 20°
2026-05-06 03:52 37.03075 -88.46689 34837 ft 496 kts 20°
2026-05-06 03:52 37.08952 -88.42138 34836 ft 496 kts 20°
2026-05-06 03:53 37.14821 -88.37582 34838 ft 496 kts 20°
2026-05-06 03:53 37.20694 -88.33013 34829 ft 497 kts 21°
2026-05-06 03:54 37.26571 -88.28433 34831 ft 499 kts 20°
2026-05-06 03:54 37.32477 -88.23822 34837 ft 500 kts 20°
2026-05-06 03:55 37.38401 -88.19187 34840 ft 502 kts 20°
2026-05-06 03:55 37.44337 -88.14534 34840 ft 503 kts 20°
2026-05-06 03:56 37.50256 -88.09885 34883 ft 506 kts 20°
2026-05-06 03:56 37.56225 -88.05188 34884 ft 506 kts 20°
2026-05-06 03:57 37.62202 -88.00473 34877 ft 506 kts 20°
2026-05-06 03:57 37.68175 -87.95752 34873 ft 506 kts 20°
2026-05-06 03:58 37.74139 -87.91032 34886 ft 506 kts 20°
2026-05-06 03:58 37.80071 -87.86321 34845 ft 495 kts 20°
2026-05-06 03:59 37.82943 -87.84027 34844 ft 482 kts 20°
2026-05-06 03:59 37.85756 -87.81787 34855 ft 475 kts 19°
2026-05-06 03:59 37.91344 -87.77360 34870 ft 473 kts 19°
2026-05-06 04:00 37.96949 -87.73066 34870 ft 468 kts 17°
2026-05-06 04:00 38.02630 -87.69048 34877 ft 466 kts 16°
2026-05-06 04:01 38.08260 -87.65070 34888 ft 467 kts 17°
2026-05-06 04:01 38.13920 -87.61012 34884 ft 467 kts 17°
2026-05-06 04:02 38.19566 -87.56932 34888 ft 467 kts 17°
2026-05-06 04:02 38.25203 -87.52845 34624 ft 463 kts 17°
2026-05-06 04:03 38.27998 -87.50816 34138 ft 464 kts 18°
2026-05-06 04:03 38.30833 -87.48768 33135 ft 476 kts 18°
2026-05-06 04:03 38.33775 -87.46654 31805 ft 495 kts 19°
2026-05-06 04:03 38.36812 -87.44462 30914 ft 505 kts 20°
2026-05-06 04:04 38.39853 -87.42239 30515 ft 500 kts 20°
2026-05-06 04:04 38.42838 -87.40041 30239 ft 493 kts 20°
2026-05-06 04:04 38.45790 -87.37871 29865 ft 488 kts 20°
2026-05-06 04:04 38.48725 -87.35722 29343 ft 485 kts 20°
2026-05-06 04:05 38.51647 -87.33589 28801 ft 482 kts 20°
2026-05-06 04:05 38.54545 -87.31474 28308 ft 479 kts 20°
2026-05-06 04:05 38.57425 -87.29368 27877 ft 474 kts 20°
2026-05-06 04:05 38.60273 -87.27283 27361 ft 471 kts 20°
2026-05-06 04:06 38.63150 -87.25182 26318 ft 482 kts 21°
2026-05-06 04:06 38.66111 -87.23022 24999 ft 499 kts 22°
2026-05-06 04:06 38.69155 -87.20773 24098 ft 506 kts 23°
2026-05-06 04:06 38.72183 -87.18509 23602 ft 502 kts 23°
2026-05-06 04:07 38.75173 -87.16264 23105 ft 495 kts 23°
2026-05-06 04:07 38.78129 -87.14051 22565 ft 488 kts 23°
2026-05-06 04:07 38.81010 -87.11902 21975 ft 484 kts 24°
2026-05-06 04:07 38.83956 -87.09706 21360 ft 480 kts 24°
2026-05-06 04:08 38.86794 -87.07589 20789 ft 477 kts 25°
2026-05-06 04:08 38.89662 -87.05448 20078 ft 478 kts 25°
2026-05-06 04:08 38.92565 -87.03278 19513 ft 474 kts 25°
2026-05-06 04:08 38.95355 -87.01187 19048 ft 468 kts 26°
2026-05-06 04:09 38.98162 -86.99118 18563 ft 463 kts 25°
2026-05-06 04:09 39.00958 -86.97104 18078 ft 459 kts 25°
2026-05-06 04:09 39.03743 -86.95111 17616 ft 454 kts 25°
2026-05-06 04:09 39.06488 -86.93141 17189 ft 449 kts 25°
2026-05-06 04:10 39.09199 -86.91182 16805 ft 445 kts 24°
2026-05-06 04:10 39.11900 -86.89217 16417 ft 447 kts 25°
2026-05-06 04:10 39.14577 -86.87174 16013 ft 448 kts 26°
2026-05-06 04:10 39.17228 -86.85089 15611 ft 443 kts 27°
2026-05-06 04:11 39.19840 -86.83024 15225 ft 438 kts 27°
2026-05-06 04:11 39.22423 -86.80999 14833 ft 433 kts 27°
2026-05-06 04:11 39.24990 -86.78997 14463 ft 429 kts 26°
2026-05-06 04:11 39.27512 -86.76960 14084 ft 427 kts 30°
2026-05-06 04:12 39.29933 -86.74766 13711 ft 424 kts 32°
2026-05-06 04:12 39.32312 -86.72520 13192 ft 423 kts 32°
2026-05-06 04:12 39.34706 -86.70266 12463 ft 428 kts 32°
2026-05-06 04:12 39.37127 -86.68019 11713 ft 426 kts 32°
2026-05-06 04:13 39.39531 -86.65808 10980 ft 421 kts 32°
2026-05-06 04:13 39.41978 -86.63748 10291 ft 413 kts 25°
2026-05-06 04:13 39.44451 -86.61958 9673 ft 405 kts 26°
2026-05-06 04:13 39.46898 -86.60126 8621 ft 409 kts 30°
2026-05-06 04:14 39.49046 -86.57708 7894 ft 406 kts 47°
2026-05-06 04:14 39.50850 -86.55040 7741 ft 383 kts 46°
2026-05-06 04:14 39.52643 -86.52598 7588 ft 364 kts 45°
2026-05-06 04:14 39.54364 -86.50313 7497 ft 346 kts 44°
2026-05-06 04:15 39.55776 -86.47895 7338 ft 332 kts 64°
2026-05-06 04:15 39.56361 -86.45032 6767 ft 331 kts 89°
2026-05-06 04:15 39.56088 -86.42096 6206 ft 328 kts 109°
2026-05-06 04:15 39.55081 -86.39479 5596 ft 324 kts 129°
2026-05-06 04:16 39.53471 -86.37490 5107 ft 318 kts 149°
2026-05-06 04:16 39.51507 -86.36380 4954 ft 300 kts 169°
2026-05-06 04:16 39.49502 -86.36198 4884 ft 281 kts 189°
2026-05-06 04:16 39.47651 -86.36738 4886 ft 269 kts 201°
2026-05-06 04:17 39.45989 -86.37782 4870 ft 264 kts 217°
2026-05-06 04:17 39.44642 -86.39353 4882 ft 265 kts 226°
2026-05-06 04:17 39.43306 -86.41071 4862 ft 269 kts 226°
2026-05-06 04:17 39.41990 -86.42770 4870 ft 271 kts 226°
2026-05-06 04:18 39.40663 -86.44482 4851 ft 267 kts 226°
2026-05-06 04:18 39.39358 -86.46173 4849 ft 264 kts 226°
2026-05-06 04:18 39.38089 -86.47894 4853 ft 265 kts 235°
2026-05-06 04:18 39.37312 -86.50026 4864 ft 262 kts 255°
2026-05-06 04:19 39.36993 -86.52336 4847 ft 262 kts 267°
2026-05-06 04:19 39.37123 -86.54675 4851 ft 262 kts 282°
2026-05-06 04:19 39.37726 -86.56890 4875 ft 261 kts 299°
2026-05-06 04:19 39.38798 -86.58779 4872 ft 262 kts 315°
2026-05-06 04:20 39.40261 -86.60172 4872 ft 262 kts 333°
2026-05-06 04:20 39.41973 -86.60972 4867 ft 264 kts 348°
2026-05-06 04:20 39.43819 -86.61056 4890 ft 268 kts
2026-05-06 04:20 39.45637 -86.60496 4902 ft 270 kts 19°
2026-05-06 04:21 39.47302 -86.59371 4868 ft 272 kts 37°
2026-05-06 04:21 39.48665 -86.57691 4898 ft 270 kts 44°
2026-05-06 04:21 39.49988 -86.55984 4872 ft 268 kts 42°
2026-05-06 04:21 39.51292 -86.54313 4893 ft 259 kts 44°
2026-05-06 04:22 39.52540 -86.52699 4878 ft 248 kts 43°
2026-05-06 04:22 39.53759 -86.51196 4877 ft 237 kts 39°
2026-05-06 04:22 39.54966 -86.49759 4864 ft 235 kts 40°
2026-05-06 04:23 39.57350 -86.46742 4363 ft 243 kts 43°
2026-05-06 04:23 39.58543 -86.45204 4060 ft 241 kts 42°
2026-05-06 04:23 39.59720 -86.43685 3712 ft 237 kts 43°
2026-05-06 04:23 39.60881 -86.42194 3402 ft 232 kts 43°
2026-05-06 04:24 39.62016 -86.40737 3081 ft 224 kts 42°
2026-05-06 04:24 39.63075 -86.39378 2785 ft 206 kts 43°
2026-05-06 04:24 39.64033 -86.38142 2503 ft 189 kts 42°
2026-05-06 04:24 39.64942 -86.36981 2259 ft 174 kts 43°
2026-05-06 04:25 39.65753 -86.35938 2045 ft 158 kts 43°
2026-05-06 04:25 39.66501 -86.34978 1859 ft 144 kts 43°
2026-05-06 04:25 39.67218 -86.34058 1636 ft 144 kts 43°
2026-05-06 04:25 39.67914 -86.33139 1397 ft 141 kts 44°
2026-05-06 04:26 39.68585 -86.32236 1198 ft 138 kts 42°
2026-05-06 04:26 39.69280 -86.31380 1070 ft 139 kts 41°
2026-05-06 04:26 39.69982 -86.30497 859 ft 141 kts 43°
2026-05-06 04:26 39.70626 -86.29681 792 ft 95 kts 46°
2026-05-06 04:27 39.71016 -86.29179 786 ft 58 kts 44°
2026-05-06 04:27 39.71140 -86.28955 790 ft 7 kts 109°
2026-05-06 04:27 39.71129 -86.28933 791 ft 1 kts 123°
2026-05-06 04:27 39.71128 -86.28931 791 ft 0 kts 121°
2026-05-06 04:28 39.71127 -86.28923 791 ft 1 kts 107°
2026-05-06 04:28 39.71123 -86.28910 791 ft 2 kts 110°
2026-05-06 04:28 39.71117 -86.28890 792 ft 5 kts 108°
2026-05-06 04:28 39.71153 -86.28808 791 ft 15 kts 45°
2026-05-06 04:29 39.71184 -86.28683 791 ft 16 kts 124°
2026-05-06 04:29 39.71127 -86.28576 790 ft 4 kts 126°
2026-05-06 04:29 39.71107 -86.28546 791 ft 4 kts 132°
2026-05-06 04:29 39.71089 -86.28520 791 ft 3 kts 134°
2026-05-06 04:30 39.71087 -86.28519 791 ft 0 kts 134°